Regional Weather Roundup
Issued by NWS

Home | Current Version | Previous Version | Text Only | Print | Product List | Glossary Off
Versions: 1 2 3 4 5 6 7 8 9 10 11 12 13 14 15 16 17 18 19 20 21 22 23 24 25 26 27 28 29 30 31 32 33 34 35 36 37 38 39 40 41 42 43 44 45 46 47

000
ASUS45 KBOU 250910
RWRCO

WEATHER ROUNDUP FOR COLORADO
NATIONAL WEATHER SERVICE PUEBLO CO
300 AM MDT WED APR 25 2018

NOTE: "FAIR" INDICATES FEW OR NO CLOUDS BELOW 12000 FEET WITH NO
SIGNIFICANT WEATHER AND/OR OBSTRUCTIONS TO VISIBILITY.

COZ001>005-013-030-031-251000-
...NORTHWEST COLORADO...

CITY           SKY/WX    TMP DP  RH WIND       PRES   REMARKS
CRAIG          CLEAR     25  20  81 SE3       30.40F
HAYDEN         CLEAR     28  21  75 CALM      30.41S
MEEKER         CLEAR     26  20  77 CALM      30.40S
RABBIT EARS PA NOT AVBL
STEAMBOAT SPGS FAIR      27  20  75 CALM      30.40S
WALDEN         FAIR      14  10  85 SE6       30.41S WCI   5
$$

COZ006>008-011-251000-
...WEST CENTRAL VALLEYS...

CITY           SKY/WX    TMP DP  RH WIND       PRES   REMARKS
GRAND JUNCTION CLEAR     41  20  43 NW3       30.33S
MONTROSE       CLEAR     34  19  54 SE9       30.36S WCI  27
EAGLE          CLEAR     29  22  75 E3        30.41S
RIFLE          CLEAR     33  24  69 CALM      30.37F
DELTA          NOT AVBL
NUCLA          FAIR      37  12  35 SE9       30.34R
$$

COZ017>023-064>068-251000-
...SOUTHWEST COLORADO...

CITY           SKY/WX    TMP DP  RH WIND       PRES   REMARKS
DURANGO        CLEAR     44  18  35 CALM      30.19S
CORTEZ         CLEAR     44  14  29 NW6       30.21F
PAGOSA SPRINGS FAIR      47  13  25 N5        30.24R
TELLURIDE      CLEAR     31  20  64 SE5       30.37S WCI  27
WOLF CREEK PAS NOT AVBL
$$

COZ009-010-012-014-032>034-037-058>063-251000-
...CENTRAL COLORADO...

CITY           SKY/WX    TMP DP  RH WIND       PRES   REMARKS
ASPEN          CLEAR     27  18  69 SW7       30.37S WCI  19
BUENA VISTA    FAIR      28  26  89 CALM      30.38F
COPPER MTN     NOT AVBL
BERTHOUD PASS  FAIR      12   1  62 NW12G25   30.36S WCI  -2
COTTONWOOD PAS CLOUDY    30  28  93 CALM      30.37F
GUNNISON       CLEAR     27  15  61 N3        30.35S
KREMMLING      CLEAR     30  23  74 CALM      30.42R
LEADVILLE      CLEAR     19  17  92 NE6       30.37S WCI  11
MONARCH PASS   CLEAR     21   5  49 W23       30.47F WCI   5
SALIDA         MOCLDY    31  29  92 S3        30.45F
SUNLIGHT       CLEAR     21  14  73 E3        30.44S
WILKERSON PASS MOCLDY   N/A N/A N/A NW9G17    30.37F
$$

COZ069>075-251000-
...SAN LUIS VALLEY/SANGRE DE CRISTO MOUNTAINS...

CITY           SKY/WX    TMP DP  RH WIND       PRES   REMARKS
ALAMOSA        MOCLDY    33  22  63 N3        30.31R
DEL NORTE      NOT AVBL
LA VETA PASS   FOG       21  19  93 MISG      30.45F VSB 1
SAGUACHE       NOT AVBL
$$

COZ035-036-038>040-251000-
...NORTHERN COLORADO FRONT RANGE...

CITY           SKY/WX    TMP DP  RH WIND       PRES   REMARKS
DENVER INTL AP MOCLDY    36  25  64 CALM      30.38F
DMNS CITY PARK NOT AVBL
AURORA         CLOUDY    34  27  75 CALM      30.38F
FRONT RANGE AP CLOUDY    36  31  83 CALM      30.39F
ERIE MUNI ARPT MOCLDY    36  32  85 CALM      30.44F
BOULDER MUN AP FAIR      34  34 100 CALM      30.38F
CENTENNIAL     MOCLDY    33  29  85 CALM      30.37F
BROOMFIELD     MOCLDY    36  32  87 SE3       30.38F
LOVELAND       PTCLDY    34  28  79 S6        30.39F WCI  29
LONGMONT       FAIR      38  32  81 CALM      30.41F
$$

COZ041-046-047-076>085-087-088-251000-
...PIKES PEAK/PALMER DIVIDE AND SOUTHERN FOOTHILLS...

CITY           SKY/WX    TMP DP  RH WIND       PRES   REMARKS
COLO. SPRINGS  PTCLDY    31  27  85 CALM      30.37F
A. F. ACADEMY  CLEAR     25  25  97 N7        30.35F WCI  18
SCHRIEVER AFB  NOT AVBL
CHEYENNE MTN   NOT AVBL
ELLICOTT         N/A    N/A N/A N/A N3        30.36F
FALCON         CLOUDY    30  27  88 N5        30.37F WCI  26
FORT CARSON    CLOUDY    35  29  78 CALM      30.37F
LIMON          CLEAR     27  25  92 NW8       30.36F WCI  19
MONUMENT HILL  CLOUDY    28  27  93 NW6       30.37F WCI  22
CANON CITY     CLOUDY    36  36 100 CALM      30.39S
WALSENBURG     CLOUDY    32  32 100 SW3       30.39F
TRINIDAD       CLOUDY    32  31  96 W3        30.39F
$$

COZ042>045-048>051-090-091-251000-
...NORTHEAST COLORADO...

CITY           SKY/WX    TMP DP  RH WIND       PRES   REMARKS
GREELEY ARPT   PTCLDY    34  29  82 CALM      30.39F
AKRON          CLEAR     26  25  96 W9        30.37F WCI  17
BURLINGTON     CLEAR     31  28  89 N9        30.35F WCI  23
WRAY           CLOUDY    34  32  93 NW7       30.38F WCI  28
YUMA           NOT AVBL
STERLING       NOT AVBL
HOLYOKE        CLOUDY    36  30  80 NW8       30.38F
FORT MORGAN    FAIR      28  25  86 NW7       30.39F WCI  21
$$

COZ086-089-092>099-251000-
...SOUTHEAST COLORADO...

CITY           SKY/WX    TMP DP  RH WIND       PRES   REMARKS
PUEBLO         CLOUDY    37  36  96 CALM      30.39F
LA JUNTA       MOCLDY    35  34  96 W8        30.39F WCI  29
LAMAR          PTCLDY    35  31  85 NW8       30.36F WCI  29
SPRINGFIELD      N/A     35  33  92 NW16      30.34F WCI  25
$$





USA.gov is the U.S. government's official web portal to all federal, state and local government web resources and services.